Weather History for Plattsmouth, NE

Change the Weather History Date:

Tuesday, April 22, 2014

  Actual Average (KOFF) Record (KOFF)
Temperature  
Mean Temperature 56 °F -  
Max Temperature 69 °F 62 °F 80 °F (2009)
Min Temperature 43 °F 43 °F 30 °F (2002)
Degree Days  
Heating Degree Days 9    
Growing Degree Days 6 (Base 50)    
Moisture  
Dew Point 30 °F    
Average Humidity 38    
Maximum Humidity 62    
Minimum Humidity 21    
Precipitation  
Precipitation 0.00 in - - ()
Sea Level Pressure  
Sea Level Pressure 30.09 in    
Wind  
Wind Speed 6 mph (ENE)    
Max Wind Speed 12 mph    
Max Gust Speed 17 mph    
Visibility 10 miles    
Events      
Averages and records for this station are not official NWS values.
T = Trace of Precipitation, MM = Missing Value Source: NWS Daily Summary

Daily Weather History Graph

Daily Weather History Graph

Search for Another Location

Airport:

Trip Planner

Search our weather history database for the weather conditions in past years. The results will help you decide how hot, cold, wet, or windy it might be!

Date:

Astronomy

Apr. 22, 2014 Rise Set
Actual Time 6:34 AM CDT 8:10 PM CDT
Civil Twilight 6:05 AM CDT 8:39 PM CDT
Nautical Twilight 5:30 AM CDT 9:15 PM CDT
Astronomical Twilight 4:52 AM CDT 9:52 PM CDT
Moon 2:26 AM CDT (4/22) 1:10 PM CDT (4/22)
Length of Visible Light 14h 34m
Length of Day
13h 36m
Last Quarter, 46% of the Moon is Illuminated
Apr 22
Last Quarter
Apr 29
New
May 6
First Quarter
May 14
Full
May 21
Last Quarter

Hourly Weather History & Observations

Time (CDT) Temp. Windchill Dew Point Humidity Pressure Visibility Wind Dir Wind Speed Gust Speed Precip Events Conditions
12:15 AM 56.8 °F - 31.3 °F 38% 30.14 in 10.0 mi North 9.2 mph 17.3 mph N/A   Clear
12:35 AM 55.2 °F - 32.0 °F 41% 30.14 in 10.0 mi North 6.9 mph - N/A   Clear
12:55 AM 53.4 °F - 32.0 °F 44% 30.14 in 10.0 mi North 6.9 mph - N/A   Clear
1:15 AM 52.5 °F - 32.5 °F 47% 30.15 in 10.0 mi Calm Calm - N/A   Clear
1:35 AM 50.7 °F - 32.9 °F 51% 30.15 in 10.0 mi North 3.5 mph - N/A   Clear
1:55 AM 51.3 °F - 32.0 °F 48% 30.15 in 10.0 mi North 3.5 mph - N/A   Clear
2:15 AM 50.2 °F - 32.0 °F 50% 30.15 in 10.0 mi North 3.5 mph - N/A   Clear
2:35 AM 50.0 °F - 32.0 °F 50% 30.15 in 10.0 mi Calm Calm - N/A   Clear
2:55 AM 48.2 °F - 32.0 °F 54% 30.15 in 10.0 mi North 4.6 mph - N/A   Clear
3:15 AM 48.4 °F - 32.2 °F 54% 30.15 in 10.0 mi NNE 4.6 mph - N/A   Clear
3:35 AM 46.4 °F - 32.4 °F 58% 30.15 in 10.0 mi Calm Calm - N/A   Clear
3:55 AM 45.7 °F 43.4 °F 32.7 °F 61% 30.16 in 10.0 mi North 4.6 mph - N/A   Clear
4:15 AM 45.5 °F 43.2 °F 32.2 °F 60% 30.16 in 10.0 mi NNE 4.6 mph - N/A   Clear
4:35 AM 44.8 °F 42.4 °F 32.0 °F 61% 30.16 in 10.0 mi NNE 4.6 mph - N/A   Clear
4:55 AM 44.4 °F 41.2 °F 32.0 °F 62% 30.16 in 10.0 mi NNE 5.8 mph - N/A   Clear
5:15 AM 44.2 °F 41.0 °F 31.6 °F 61% 30.16 in 10.0 mi NNE 5.8 mph - N/A   Clear
5:35 AM 43.9 °F 40.5 °F 31.1 °F 61% 30.16 in 10.0 mi NNE 5.8 mph - N/A   Clear
5:55 AM 43.9 °F 39.9 °F 30.0 °F 58% 30.15 in 10.0 mi NNE 6.9 mph - N/A   Clear
6:15 AM 43.9 °F 41.3 °F 30.0 °F 58% 30.15 in 10.0 mi NNE 4.6 mph - N/A   Clear
6:35 AM 43.9 °F 41.3 °F 29.7 °F 57% 30.16 in 10.0 mi NNE 4.6 mph - N/A   Clear
6:55 AM 43.7 °F 40.3 °F 29.5 °F 57% 30.16 in 10.0 mi NNE 5.8 mph - N/A   Clear
7:15 AM 44.2 °F 40.3 °F 29.8 °F 57% 30.16 in 10.0 mi NE 6.9 mph - N/A   Clear
7:35 AM 45.5 °F 43.2 °F 31.5 °F 58% 30.16 in 10.0 mi NE 4.6 mph - N/A   Clear
7:55 AM 47.1 °F - 31.6 °F 55% 30.17 in 10.0 mi NE 3.5 mph - N/A   Clear
8:15 AM 48.4 °F - 30.7 °F 51% 30.17 in 10.0 mi ENE 5.8 mph - N/A   Clear
8:35 AM 48.9 °F - 30.0 °F 48% 30.17 in 10.0 mi ENE 6.9 mph - N/A   Clear
8:55 AM 50.2 °F - 29.8 °F 46% 30.17 in 10.0 mi ENE 9.2 mph - N/A   Clear
9:15 AM 52.0 °F - 29.5 °F 42% 30.17 in 10.0 mi ENE 5.8 mph - N/A   Clear
9:35 AM 53.1 °F - 28.6 °F 39% 30.17 in 10.0 mi ENE 8.1 mph - N/A   Clear
9:55 AM 54.9 °F - 28.4 °F 36% 30.17 in 10.0 mi ENE 11.5 mph 16.1 mph N/A   Clear
10:15 AM 56.3 °F - 29.1 °F 35% 30.17 in 10.0 mi East 9.2 mph - N/A   Clear
10:35 AM 57.0 °F - 28.9 °F 34% 30.17 in 10.0 mi ENE 10.4 mph - N/A   Clear
10:55 AM 57.9 °F - 28.9 °F 33% 30.17 in 10.0 mi East 10.4 mph 16.1 mph N/A   Clear
11:15 AM 59.0 °F - 29.3 °F 32% 30.17 in 10.0 mi ENE 6.9 mph - N/A   Clear
11:35 AM 60.1 °F - 28.6 °F 30% 30.16 in 10.0 mi ENE 8.1 mph - N/A   Clear
11:55 AM 60.3 °F - 27.9 °F 29% 30.15 in 10.0 mi ENE 5.8 mph 16.1 mph N/A   Clear
12:15 PM 61.9 °F - 28.4 °F 28% 30.15 in 10.0 mi East 6.9 mph - N/A   Clear
12:35 PM 61.7 °F - 27.9 °F 28% 30.14 in 10.0 mi ESE 3.5 mph - N/A   Clear
12:55 PM 61.7 °F - 27.5 °F 27% 30.13 in 10.0 mi NE 5.8 mph - N/A   Clear
1:15 PM 63.0 °F - 28.4 °F 27% 30.12 in 10.0 mi SSE 6.9 mph - N/A   Clear
1:35 PM 63.1 °F - 27.7 °F 26% 30.12 in 10.0 mi SSE 3.5 mph - N/A   Clear
1:55 PM 63.9 °F - 27.1 °F 25% 30.11 in 10.0 mi East 6.9 mph - N/A   Clear
2:15 PM 64.2 °F - 27.3 °F 25% 30.10 in 10.0 mi Calm Calm - N/A   Clear
2:35 PM 65.3 °F - 29.1 °F 26% 30.09 in 10.0 mi SE 6.9 mph - N/A   Clear
2:55 PM 65.3 °F - 28.6 °F 25% 30.08 in 10.0 mi SE 5.8 mph - N/A   Clear
3:15 PM 66.9 °F - 30.0 °F 25% 30.07 in 10.0 mi ESE 3.5 mph - N/A   Clear
3:35 PM 66.9 °F - 29.1 °F 24% 30.05 in 10.0 mi SE 5.8 mph - N/A   Clear
3:55 PM 68.9 °F - 29.1 °F 23% 30.04 in 10.0 mi ESE 9.2 mph - N/A   Clear
4:15 PM 68.7 °F - 27.5 °F 21% 30.03 in 10.0 mi East 9.2 mph - N/A   Clear
4:35 PM 69.4 °F - 29.1 °F 22% 30.02 in 10.0 mi ESE 5.8 mph - N/A   Clear
4:55 PM 69.4 °F - 27.5 °F 21% 30.01 in 10.0 mi SE 5.8 mph - N/A   Clear
5:15 PM 68.0 °F - 27.3 °F 22% 30.01 in 10.0 mi East 8.1 mph - N/A   Scattered Clouds
5:35 PM 69.1 °F - 27.9 °F 21% 30.00 in 10.0 mi ESE 9.2 mph - N/A   Scattered Clouds
5:55 PM 67.5 °F - 28.0 °F 23% 30.00 in 10.0 mi ESE 9.2 mph - N/A   Scattered Clouds
6:15 PM 69.4 °F - 28.0 °F 21% 29.99 in 10.0 mi ESE 10.4 mph - N/A   Mostly Cloudy
6:35 PM 69.1 °F - 28.6 °F 22% 29.98 in 10.0 mi ESE 10.4 mph - N/A   Mostly Cloudy
6:55 PM 67.1 °F - 28.4 °F 23% 29.98 in 10.0 mi East 11.5 mph - N/A   Mostly Cloudy
7:15 PM 66.2 °F - 28.2 °F 24% 29.97 in 10.0 mi ESE 9.2 mph - N/A   Overcast
7:35 PM 65.5 °F - 29.5 °F 26% 29.97 in 10.0 mi East 8.1 mph - N/A   Mostly Cloudy
7:55 PM 64.4 °F - 30.2 °F 28% 29.97 in 10.0 mi East 8.1 mph - N/A   Mostly Cloudy
8:15 PM 63.1 °F - 31.1 °F 30% 29.97 in 10.0 mi East 8.1 mph - N/A   Mostly Cloudy
8:35 PM 62.6 °F - 31.5 °F 31% 29.97 in 10.0 mi ESE 6.9 mph - N/A   Overcast
9:15 PM 61.5 °F - 31.6 °F 33% 29.98 in 10.0 mi East 9.2 mph - N/A   Mostly Cloudy
9:35 PM 61.3 °F - 30.9 °F 32% 29.98 in 10.0 mi ESE 9.2 mph - N/A   Mostly Cloudy
9:55 PM 61.7 °F - 30.7 °F 31% 29.98 in 10.0 mi ESE 8.1 mph - N/A   Overcast
10:15 PM 61.0 °F - 30.7 °F 32% 29.99 in 10.0 mi ESE 8.1 mph - N/A   Overcast
10:35 PM 60.3 °F - 31.8 °F 34% 29.99 in 10.0 mi ESE 5.8 mph - N/A   Overcast
10:55 PM 60.4 °F - 32.0 °F 34% 29.98 in 10.0 mi SE 6.9 mph - N/A   Overcast
11:15 PM 59.9 °F - 32.0 °F 35% 29.98 in 10.0 mi SE 8.1 mph - N/A   Overcast
11:35 PM 59.9 °F - 32.0 °F 35% 29.97 in 10.0 mi SE 9.2 mph - N/A   Overcast
11:55 PM 58.6 °F - 32.2 °F 37% 29.97 in 10.0 mi SE 8.1 mph - N/A   Mostly Cloudy